| time (UTC) | temp C | wind direction | speed KPH | gust KPH | rain 1hr cm | rain 24hr cm | rain mn cm | humidity % | barometer mb |
| 20260506224509 | 9 | 304 | 1.6 | 6.4 | 0.00 | 0.00 | 0.00 | 82 | 1014.3 |
| 20260506224008 | 9 | 30 | 1.6 | 8.0 | 0.00 | 0.00 | 0.00 | 82 | 1014.3 |
| 20260506223507 | 9 | 304 | 3.2 | 8.0 | 0.00 | 0.00 | 0.00 | 82 | 1014.2 |
| 20260506223006 | 9 | 351 | 3.2 | 8.0 | 0.00 | 0.00 | 0.00 | 82 | 1014.2 |
| 20260506222606 | 9 | 64 | 1.6 | 8.0 | 0.00 | 0.00 | 0.00 | 81 | 1014.2 |
| 20260506222006 | 9 | 39 | 3.2 | 9.7 | 0.00 | 0.00 | 0.00 | 81 | 1014.2 |
| 20260506221505 | 9 | 342 | 3.2 | 12.9 | 0.00 | 0.00 | 0.00 | 81 | 1014.1 |
| 20260506221004 | 9 | 311 | 3.2 | 12.9 | 0.00 | 0.00 | 0.00 | 80 | 1014.0 |
| 20260506220504 | 9 | 311 | 3.2 | 8.0 | 0.00 | 0.00 | 0.00 | 80 | 1014.0 |
| 20260506220003 | 10 | 345 | 1.6 | 8.0 | 0.00 | 0.00 | 0.00 | 80 | 1014.0 |
| 20260506215501 | 10 | 360 | 1.6 | 6.4 | 0.00 | 0.00 | 0.00 | 79 | 1014.0 |
| 20260506215003 | 10 | 296 | 0.0 | 6.4 | 0.00 | 0.00 | 0.00 | 79 | 1014.0 |
| 20260506214601 | 10 | 327 | 1.6 | 9.7 | 0.00 | 0.00 | 0.00 | 78 | 1013.9 |
| 20260506214100 | 10 | 350 | 3.2 | 9.7 | 0.00 | 0.00 | 0.00 | 77 | 1013.9 |
| 20260506213602 | 10 | 15 | 1.6 | 8.0 | 0.00 | 0.00 | 0.00 | 77 | 1013.8 |
| 20260506213136 | 10 | 285 | 3.2 | 9.7 | 0.00 | 0.00 | 0.00 | 76 | 1013.7 |
| 20260506212558 | 10 | 50 | 1.6 | 6.4 | 0.00 | 0.00 | 0.00 | 76 | 1013.7 |
| 20260506212059 | 10 | 292 | 1.6 | 6.4 | 0.00 | 0.00 | 0.00 | 76 | 1013.7 |
| 20260506211616 | 10 | 312 | 1.6 | 8.0 | 0.00 | 0.00 | 0.00 | 75 | 1013.7 |
| 20260506211057 | 10 | 290 | 0.0 | 8.0 | 0.00 | 0.00 | 0.00 | 75 | 1013.6 |
| 20260506210556 | 10 | 307 | 0.0 | 8.0 | 0.00 | 0.00 | 0.00 | 75 | 1013.6 |
| 20260506205555 | 10 | 293 | 0.0 | 6.4 | 0.00 | 0.00 | 0.00 | 74 | 1013.5 |
| 20260506205054 | 10 | 325 | 0.0 | 6.4 | 0.00 | 0.00 | 0.00 | 74 | 1013.5 |
| 20260506204558 | 11 | 302 | 1.6 | 8.0 | 0.00 | 0.00 | 0.00 | 74 | 1013.5 |
| 20260506204053 | 11 | 290 | 3.2 | 8.0 | 0.00 | 0.00 | 0.00 | 73 | 1013.4 |
| 20260506203554 | 11 | 344 | 1.6 | 8.0 | 0.00 | 0.00 | 0.00 | 73 | 1013.4 |
| 20260506203054 | 11 | 38 | 1.6 | 8.0 | 0.00 | 0.00 | 0.00 | 73 | 1013.3 |
| 20260506202555 | 11 | 51 | 3.2 | 8.0 | 0.00 | 0.00 | 0.00 | 72 | 1013.3 |
| 20260506202057 | 11 | 302 | 1.6 | 8.0 | 0.00 | 0.00 | 0.00 | 72 | 1013.3 |
| 20260506201600 | 11 | 277 | 1.6 | 9.7 | 0.00 | 0.00 | 0.00 | 71 | 1013.2 |
| 20260506201052 | 11 | 327 | 3.2 | 16.1 | 0.00 | 0.00 | 0.00 | 71 | 1013.2 |
| 20260506200551 | 11 | 37 | 3.2 | 16.1 | 0.00 | 0.00 | 0.00 | 70 | 1013.2 |
| 20260506200058 | 11 | 309 | 0.0 | 6.4 | 0.00 | 0.00 | 0.00 | 69 | 1013.1 |
| 20260506195550 | 11 | 331 | 1.6 | 12.9 | 0.00 | 0.00 | 0.00 | 68 | 1013.0 |
| 20260506195049 | 11 | 271 | 1.6 | 12.9 | 0.00 | 0.00 | 0.00 | 67 | 1012.9 |
| 20260506194558 | 11 | 292 | 3.2 | 12.9 | 0.00 | 0.00 | 0.00 | 66 | 1012.9 |
| 20260506194052 | 11 | 306 | 3.2 | 12.9 | 0.00 | 0.00 | 0.00 | 66 | 1012.9 |
| 20260506193552 | 11 | 5 | 3.2 | 9.7 | 0.00 | 0.00 | 0.00 | 66 | 1012.8 |
| 20260506193047 | 11 | 338 | 3.2 | 11.3 | 0.00 | 0.00 | 0.00 | 66 | 1012.8 |
| 20260506192551 | 11 | 322 | 3.2 | 14.5 | 0.00 | 0.00 | 0.00 | 66 | 1012.7 |
| 20260506192046 | 11 | 304 | 3.2 | 14.5 | 0.00 | 0.00 | 0.00 | 65 | 1012.6 |
| 20260506191548 | 12 | 350 | 4.8 | 9.7 | 0.00 | 0.00 | 0.00 | 65 | 1012.6 |
| 20260506191046 | 12 | 32 | 1.6 | 9.7 | 0.00 | 0.00 | 0.00 | 65 | 1012.5 |
| 20260506190544 | 12 | 298 | 1.6 | 9.7 | 0.00 | 0.00 | 0.00 | 64 | 1012.4 |
| 20260506190043 | 12 | 300 | 3.2 | 12.9 | 0.00 | 0.00 | 0.00 | 64 | 1012.3 |
| 20260506185543 | 12 | 295 | 4.8 | 14.5 | 0.00 | 0.00 | 0.00 | 64 | 1012.3 |
| 20260506185045 | 12 | 292 | 3.2 | 16.1 | 0.00 | 0.00 | 0.00 | 65 | 1012.2 |
| 20260506184541 | 12 | 338 | 4.8 | 16.1 | 0.00 | 0.00 | 0.00 | 65 | 1012.1 |
| 20260506184041 | 12 | 279 | 3.2 | 14.5 | 0.00 | 0.00 | 0.00 | 65 | 1012.1 |
| 20260506183542 | 12 | 355 | 3.2 | 14.5 | 0.00 | 0.00 | 0.00 | 66 | 1012.0 |
| 20260506183055 | 12 | 268 | 3.2 | 8.0 | 0.00 | 0.00 | 0.00 | 65 | 1011.9 |
| 20260506182539 | 12 | 280 | 1.6 | 12.9 | 0.00 | 0.00 | 0.00 | 66 | 1011.9 |
| 20260506182042 | 12 | 289 | 4.8 | 14.5 | 0.00 | 0.00 | 0.00 | 65 | 1011.9 |
| 20260506181539 | 12 | 74 | 4.8 | 14.5 | 0.00 | 0.00 | 0.00 | 65 | 1011.8 |
| 20260506181037 | 12 | 325 | 4.8 | 12.9 | 0.00 | 0.00 | 0.00 | 65 | 1011.8 |
| 20260506180539 | 13 | 330 | 3.2 | 11.3 | 0.00 | 0.00 | 0.00 | 65 | 1011.8 |
| 20260506180040 | 13 | 90 | 3.2 | 16.1 | 0.00 | 0.00 | 0.00 | 65 | 1011.6 |
| 20260506175538 | 13 | 293 | 4.8 | 16.1 | 0.00 | 0.00 | 0.00 | 65 | 1011.6 |
| 20260506175035 | 13 | 301 | 3.2 | 11.3 | 0.00 | 0.00 | 0.00 | 65 | 1011.5 |
| 20260506174539 | 12 | 85 | 4.8 | 11.3 | 0.00 | 0.00 | 0.00 | 65 | 1011.5 |
| 20260506174035 | 12 | 92 | 3.2 | 8.0 | 0.00 | 0.00 | 0.00 | 65 | 1011.4 |
| 20260506173533 | 12 | 56 | 3.2 | 9.7 | 0.00 | 0.00 | 0.00 | 64 | 1011.3 |
| 20260506173034 | 12 | 13 | 1.6 | 9.7 | 0.00 | 0.00 | 0.00 | 64 | 1011.3 |
| 20260506172532 | 12 | 57 | 1.6 | 6.4 | 0.00 | 0.00 | 0.00 | 64 | 1011.2 |
| 20260506172032 | 12 | 300 | 0.0 | 9.7 | 0.00 | 0.00 | 0.00 | 63 | 1011.1 |
| 20260506171537 | 12 | 338 | 0.0 | 9.7 | 0.00 | 0.00 | 0.00 | 63 | 1011.1 |
| 20260506171033 | 12 | 58 | 3.2 | 11.3 | 0.00 | 0.00 | 0.00 | 64 | 1011.2 |
| 20260506170531 | 12 | 46 | 1.6 | 12.9 | 0.00 | 0.00 | 0.00 | 63 | 1011.1 |
| 20260506170034 | 13 | 68 | 3.2 | 12.9 | 0.00 | 0.00 | 0.00 | 63 | 1011.1 |
| 20260506165532 | 13 | 79 | 3.2 | 9.7 | 0.00 | 0.00 | 0.00 | 61 | 1011.1 |
| 20260506165031 | 13 | 132 | 1.6 | 14.5 | 0.00 | 0.00 | 0.00 | 61 | 1011.1 |
| 20260506164531 | 13 | 36 | 0.0 | 9.7 | 0.00 | 0.00 | 0.00 | 61 | 1011.1 |
| 20260506164034 | 13 | 82 | 1.6 | 9.7 | 0.00 | 0.00 | 0.00 | 60 | 1011.0 |
| 20260506163530 | 13 | 99 | 1.6 | 17.7 | 0.00 | 0.00 | 0.00 | 59 | 1011.0 |
| 20260506163033 | 13 | 67 | 3.2 | 17.7 | 0.00 | 0.00 | 0.00 | 58 | 1011.0 |
| 20260506162529 | 13 | 46 | 3.2 | 8.0 | 0.00 | 0.00 | 0.00 | 58 | 1010.9 |
| 20260506162033 | 13 | 279 | 3.2 | 8.0 | 0.00 | 0.00 | 0.00 | 57 | 1010.9 |
| 20260506161530 | 13 | 328 | 3.2 | 8.0 | 0.00 | 0.00 | 0.00 | 57 | 1010.8 |
| 20260506161029 | 13 | 60 | 1.6 | 8.0 | 0.00 | 0.00 | 0.00 | 56 | 1010.8 |
| 20260506160531 | 13 | 344 | 3.2 | 16.1 | 0.00 | 0.00 | 0.00 | 56 | 1010.8 |
| 20260506160030 | 13 | 43 | 1.6 | 16.1 | 0.00 | 0.00 | 0.00 | 56 | 1010.8 |
| 20260506155530 | 13 | 24 | 3.2 | 14.5 | 0.00 | 0.00 | 0.00 | 55 | 1010.9 |
| 20260506155029 | 13 | 54 | 3.2 | 12.9 | 0.00 | 0.00 | 0.00 | 54 | 1010.9 |
| 20260506154532 | 13 | 71 | 3.2 | 12.9 | 0.00 | 0.00 | 0.00 | 53 | 1010.8 |
| 20260506154029 | 13 | 265 | 1.6 | 14.5 | 0.00 | 0.00 | 0.00 | 52 | 1010.8 |
| 20260506153528 | 13 | 62 | 3.2 | 14.5 | 0.00 | 0.00 | 0.00 | 51 | 1010.9 |
| 20260506153028 | 13 | 19 | 1.6 | 14.5 | 0.00 | 0.00 | 0.00 | 50 | 1010.9 |
| 20260506152528 | 13 | 36 | 4.8 | 11.3 | 0.00 | 0.00 | 0.00 | 50 | 1010.9 |
| 20260506152030 | 13 | 49 | 1.6 | 8.0 | 0.00 | 0.00 | 0.00 | 51 | 1010.8 |
| 20260506151529 | 13 | 54 | 1.6 | 9.7 | 0.00 | 0.00 | 0.00 | 50 | 1010.8 |
| 20260506151029 | 13 | 113 | 4.8 | 9.7 | 0.00 | 0.00 | 0.00 | 50 | 1010.7 |
| 20260506150527 | 13 | 57 | 3.2 | 14.5 | 0.00 | 0.00 | 0.00 | 49 | 1010.7 |
| 20260506150027 | 14 | 71 | 3.2 | 11.3 | 0.00 | 0.00 | 0.00 | 49 | 1010.8 |
| 20260506145529 | 14 | 321 | 3.2 | 9.7 | 0.00 | 0.00 | 0.00 | 48 | 1010.7 |
| 20260506145026 | 14 | 84 | 1.6 | 11.3 | 0.00 | 0.00 | 0.00 | 49 | 1010.7 |
| 20260506144526 | 14 | 11 | 1.6 | 16.1 | 0.00 | 0.00 | 0.00 | 49 | 1010.6 |
| 20260506144028 | 15 | 360 | 3.2 | 16.1 | 0.00 | 0.00 | 0.00 | 48 | 1010.6 |
| 20260506143526 | 15 | 24 | 3.2 | 14.5 | 0.00 | 0.00 | 0.00 | 48 | 1010.6 |
| 20260506143031 | 15 | 77 | 4.8 | 14.5 | 0.00 | 0.00 | 0.00 | 47 | 1010.7 |
| 20260506142525 | 15 | 98 | 3.2 | 17.7 | 0.00 | 0.00 | 0.00 | 49 | 1010.5 |
| 20260506142029 | 15 | 36 | 3.2 | 17.7 | 0.00 | 0.00 | 0.00 | 49 | 1010.5 |
| 20260506141525 | 15 | 62 | 4.8 | 16.1 | 0.00 | 0.00 | 0.00 | 50 | 1010.6 |
| 20260506141029 | 15 | 71 | 4.8 | 16.1 | 0.00 | 0.00 | 0.00 | 49 | 1010.5 |
| 20260506140525 | 15 | 79 | 6.4 | 19.3 | 0.00 | 0.00 | 0.00 | 49 | 1010.6 |
| 20260506140024 | 15 | 40 | 6.4 | 19.3 | 0.00 | 0.00 | 0.00 | 49 | 1010.5 |
| 20260506135524 | 15 | 302 | 3.2 | 19.3 | 0.00 | 0.00 | 0.00 | 48 | 1010.6 |
| 20260506135024 | 15 | 70 | 1.6 | 22.5 | 0.00 | 0.00 | 0.00 | 48 | 1010.4 |
| 20260506134524 | 15 | 44 | 4.8 | 22.5 | 0.00 | 0.00 | 0.00 | 48 | 1010.5 |
| 20260506134024 | 15 | 305 | 3.2 | 9.7 | 0.00 | 0.00 | 0.00 | 49 | 1010.5 |
| 20260506133526 | 15 | 335 | 3.2 | 14.5 | 0.00 | 0.00 | 0.00 | 49 | 1010.4 |
| 20260506133025 | 15 | 36 | 4.8 | 14.5 | 0.00 | 0.00 | 0.00 | 49 | 1010.5 |
| 20260506132525 | 15 | 58 | 3.2 | 11.3 | 0.00 | 0.00 | 0.00 | 49 | 1010.5 |
| 20260506132027 | 15 | 75 | 1.6 | 14.5 | 0.00 | 0.00 | 0.00 | 48 | 1010.4 |
| 20260506131523 | 16 | 73 | 3.2 | 12.9 | 0.00 | 0.00 | 0.00 | 47 | 1010.2 |
| 20260506131023 | 16 | 40 | 3.2 | 16.1 | 0.00 | 0.00 | 0.00 | 49 | 1010.3 |
| 20260506130523 | 16 | 71 | 4.8 | 16.1 | 0.00 | 0.00 | 0.00 | 48 | 1010.3 |
| 20260506130024 | 16 | 133 | 1.6 | 16.1 | 0.00 | 0.00 | 0.00 | 48 | 1010.2 |
| 20260506125522 | 16 | 302 | 4.8 | 16.1 | 0.00 | 0.00 | 0.00 | 47 | 1010.3 |
| 20260506125021 | 16 | 58 | 3.2 | 19.3 | 0.00 | 0.00 | 0.00 | 49 | 1010.3 |
| 20260506124518 | 15 | 292 | 4.8 | 19.3 | 0.00 | 0.00 | 0.00 | 47 | 1010.3 |
| 20260506124018 | 15 | 247 | 6.4 | 17.7 | 0.00 | 0.00 | 0.00 | 48 | 1010.3 |
| 20260506123517 | 15 | 61 | 3.2 | 22.5 | 0.00 | 0.00 | 0.00 | 49 | 1010.2 |
| 20260506123018 | 15 | 296 | 3.2 | 16.1 | 0.00 | 0.00 | 0.00 | 51 | 1010.3 |
| 20260506122515 | 15 | 114 | 3.2 | 16.1 | 0.00 | 0.00 | 0.00 | 50 | 1010.3 |
| 20260506122014 | 15 | 74 | 6.4 | 17.7 | 0.00 | 0.00 | 0.00 | 50 | 1010.3 |
| 20260506121521 | 15 | 127 | 4.8 | 20.9 | 0.00 | 0.00 | 0.00 | 50 | 1010.2 |
| 20260506121013 | 15 | 32 | 3.2 | 12.9 | 0.00 | 0.00 | 0.00 | 50 | 1010.3 |
| 20260506120514 | 15 | 269 | 4.8 | 19.3 | 0.00 | 0.00 | 0.00 | 51 | 1010.3 |
| 20260506120012 | 15 | 24 | 6.4 | 19.3 | 0.00 | 0.00 | 0.00 | 51 | 1010.2 |
| 20260506115512 | 15 | 19 | 4.8 | 17.7 | 0.00 | 0.00 | 0.00 | 52 | 1010.2 |
| 20260506115011 | 15 | 54 | 4.8 | 14.5 | 0.00 | 0.00 | 0.00 | 51 | 1010.3 |
| 20260506114511 | 15 | 311 | 4.8 | 19.3 | 0.00 | 0.00 | 0.00 | 50 | 1010.3 |
| 20260506114011 | 15 | 340 | 4.8 | 19.3 | 0.00 | 0.00 | 0.00 | 51 | 1010.3 |
| 20260506113510 | 14 | 82 | 4.8 | 24.1 | 0.00 | 0.00 | 0.00 | 50 | 1010.3 |
| 20260506113018 | 14 | 70 | 8.0 | 24.1 | 0.00 | 0.00 | 0.00 | 49 | 1010.3 |
| 20260506112510 | 14 | 44 | 6.4 | 20.9 | 0.00 | 0.00 | 0.00 | 52 | 1010.3 |
| 20260506112013 | 14 | 331 | 4.8 | 29.0 | 0.00 | 0.00 | 0.00 | 54 | 1010.2 |
| 20260506111509 | 14 | 51 | 6.4 | 29.0 | 0.00 | 0.00 | 0.00 | 56 | 1010.3 |
| 20260506111013 | 14 | 118 | 6.4 | 17.7 | 0.00 | 0.00 | 0.00 | 59 | 1010.2 |
| 20260506110509 | 14 | 25 | 4.8 | 17.7 | 0.00 | 0.00 | 0.00 | 59 | 1010.2 |
| 20260506110011 | 15 | 49 | 3.2 | 14.5 | 0.00 | 0.00 | 0.00 | 58 | 1010.1 |
| 20260506105506 | 14 | 331 | 3.2 | 14.5 | 0.00 | 0.00 | 0.00 | 55 | 1010.2 |
| 20260506105005 | 14 | 54 | 4.8 | 17.7 | 0.00 | 0.00 | 0.00 | 62 | 1010.3 |
| 20260506104505 | 14 | 100 | 3.2 | 17.7 | 0.00 | 0.00 | 0.00 | 61 | 1010.2 |
| 20260506104005 | 14 | 136 | 4.8 | 16.1 | 0.00 | 0.00 | 0.00 | 60 | 1010.4 |
| 20260506103504 | 13 | 46 | 3.2 | 16.1 | 0.00 | 0.00 | 0.00 | 60 | 1010.2 |
| 20260506103010 | 13 | 58 | 6.4 | 16.1 | 0.00 | 0.00 | 0.00 | 60 | 1010.2 |
| 20260506102502 | 13 | 16 | 3.2 | 16.1 | 0.00 | 0.00 | 0.00 | 61 | 1010.2 |
| 20260506102102 | 13 | 26 | 6.4 | 16.1 | 0.00 | 0.00 | 0.00 | 63 | 1010.2 |
| 20260506101600 | 13 | 355 | 6.4 | 16.1 | 0.00 | 0.00 | 0.00 | 65 | 1010.3 |
| 20260506101058 | 13 | 115 | 6.4 | 16.1 | 0.00 | 0.00 | 0.00 | 67 | 1010.2 |
| 20260506100558 | 13 | 72 | 3.2 | 14.5 | 0.00 | 0.00 | 0.00 | 68 | 1010.1 |
| 20260506100056 | 13 | 306 | 4.8 | 14.5 | 0.00 | 0.00 | 0.00 | 69 | 1010.1 |
| 20260506095555 | 13 | 124 | 3.2 | 17.7 | 0.00 | 0.00 | 0.00 | 69 | 1010.1 |
| 20260506095057 | 13 | 57 | 6.4 | 19.3 | 0.00 | 0.00 | 0.00 | 69 | 1010.1 |
| 20260506094558 | 13 | 127 | 8.0 | 19.3 | 0.00 | 0.00 | 0.00 | 69 | 1010.0 |
| 20260506094052 | 13 | 51 | 3.2 | 14.5 | 0.00 | 0.00 | 0.00 | 71 | 1010.0 |
| 20260506093552 | 13 | 55 | 3.2 | 9.7 | 0.00 | 0.00 | 0.00 | 71 | 1010.0 |
| 20260506093052 | 13 | 277 | 3.2 | 11.3 | 0.00 | 0.00 | 0.00 | 71 | 1010.0 |
| 20260506092551 | 13 | 32 | 3.2 | 16.1 | 0.00 | 0.00 | 0.00 | 68 | 1010.0 |
| 20260506092052 | 13 | 295 | 3.2 | 12.9 | 0.00 | 0.00 | 0.00 | 70 | 1010.0 |
| 20260506091552 | 13 | 36 | 1.6 | 14.5 | 0.00 | 0.00 | 0.00 | 72 | 1010.0 |
| 20260506091049 | 12 | 24 | 4.8 | 14.5 | 0.00 | 0.00 | 0.00 | 70 | 1009.9 |
| 20260506090549 | 13 | 32 | 4.8 | 11.3 | 0.00 | 0.00 | 0.00 | 70 | 1009.9 |
| 20260506090054 | 13 | 68 | 1.6 | 12.9 | 0.00 | 0.00 | 0.00 | 71 | 1009.9 |
| 20260506085549 | 13 | 335 | 3.2 | 16.1 | 0.00 | 0.00 | 0.00 | 72 | 1009.9 |
| 20260506085049 | 13 | 68 | 4.8 | 16.1 | 0.00 | 0.00 | 0.00 | 71 | 1009.9 |
| 20260506084601 | 13 | 45 | 3.2 | 12.9 | 0.00 | 0.00 | 0.00 | 72 | 1009.9 |
| 20260506084047 | 13 | 329 | 3.2 | 11.3 | 0.00 | 0.00 | 0.00 | 73 | 1009.8 |
| 20260506083546 | 13 | 310 | 3.2 | 14.5 | 0.00 | 0.00 | 0.00 | 73 | 1009.8 |
| 20260506083046 | 13 | 293 | 4.8 | 14.5 | 0.00 | 0.00 | 0.00 | 73 | 1009.8 |
| 20260506082544 | 13 | 27 | 4.8 | 14.5 | 0.00 | 0.00 | 0.00 | 73 | 1009.8 |
| 20260506082045 | 13 | 39 | 4.8 | 17.7 | 0.00 | 0.00 | 0.00 | 74 | 1009.7 |
| 20260506081544 | 13 | 44 | 6.4 | 17.7 | 0.00 | 0.00 | 0.00 | 74 | 1009.8 |
| 20260506081043 | 13 | 59 | 4.8 | 16.1 | 0.00 | 0.00 | 0.00 | 74 | 1009.8 |
| 20260506080545 | 13 | 69 | 1.6 | 17.7 | 0.00 | 0.00 | 0.00 | 75 | 1009.7 |
| 20260506073033 | 11 | 348 | 1.6 | 12.9 | 0.00 | 0.00 | 0.00 | 79 | 1009.7 |
| 20260506072534 | 11 | 294 | 3.2 | 16.1 | 0.00 | 0.00 | 0.00 | 79 | 1009.8 |
| 20260506072032 | 11 | 348 | 3.2 | 16.1 | 0.00 | 0.00 | 0.00 | 79 | 1009.7 |
| 20260506071532 | 11 | 47 | 6.4 | 16.1 | 0.00 | 0.00 | 0.00 | 79 | 1009.7 |
| 20260506071036 | 11 | 336 | 3.2 | 9.7 | 0.00 | 0.00 | 0.00 | 81 | 1009.6 |
| 20260506070530 | 11 | 327 | 3.2 | 9.7 | 0.00 | 0.00 | 0.00 | 81 | 1009.7 |
| 20260506062023 | 10 | 33 | 4.8 | 17.7 | 0.00 | 0.00 | 0.00 | 83 | 1009.4 |
| 20260506061542 | 10 | 306 | 4.8 | 12.9 | 0.00 | 0.00 | 0.00 | 83 | 1009.3 |
| 20260506061020 | 10 | 355 | 3.2 | 12.9 | 0.00 | 0.00 | 0.00 | 84 | 1009.3 |
| 20260506060523 | 10 | 306 | 3.2 | 12.9 | 0.00 | 0.00 | 0.00 | 84 | 1009.3 |
| 20260506051009 | 10 | 304 | 3.2 | 16.1 | 0.00 | 0.00 | 0.00 | 82 | 1009.3 |
| 20260506050515 | 10 | 292 | 4.8 | 12.9 | 0.00 | 0.00 | 0.00 | 82 | 1009.4 |
| 20260506045008 | 10 | 314 | 1.6 | 12.9 | 0.00 | 0.00 | 0.00 | 83 | 1009.4 |
| 20260506044507 | 10 | 350 | 3.2 | 12.9 | 0.00 | 0.00 | 0.00 | 83 | 1009.4 |
| 20260506044004 | 10 | 260 | 3.2 | 12.9 | 0.00 | 0.00 | 0.00 | 83 | 1009.4 |
| 20260506043503 | 10 | 294 | 4.8 | 12.9 | 0.00 | 0.00 | 0.00 | 83 | 1009.5 |
| 20260506043006 | 10 | 43 | 3.2 | 14.5 | 0.00 | 0.00 | 0.00 | 83 | 1009.4 |
| 20260506042505 | 10 | 321 | 3.2 | 9.7 | 0.00 | 0.00 | 0.00 | 83 | 1009.5 |
| 20260506042001 | 10 | 284 | 3.2 | 8.0 | 0.00 | 0.00 | 0.00 | 83 | 1009.5 |
| 20260506041604 | 10 | 302 | 1.6 | 8.0 | 0.00 | 0.00 | 0.00 | 83 | 1009.4 |
| 20260506041058 | 10 | 303 | 1.6 | 12.9 | 0.00 | 0.00 | 0.00 | 83 | 1009.5 |
| 20260506040559 | 10 | 39 | 4.8 | 12.9 | 0.00 | 0.00 | 0.00 | 83 | 1009.6 |
| 20260506040159 | 10 | 285 | 1.6 | 9.7 | 0.00 | 0.00 | 0.00 | 83 | 1009.6 |
| 20260506035559 | 10 | 88 | 4.8 | 12.9 | 0.00 | 0.00 | 0.00 | 83 | 1009.6 |
| 20260506035057 | 10 | 55 | 3.2 | 12.9 | 0.00 | 0.00 | 0.00 | 83 | 1009.6 |
| 20260506034604 | 10 | 297 | 3.2 | 14.5 | 0.00 | 0.00 | 0.00 | 83 | 1009.6 |
| 20260506034058 | 10 | 53 | 3.2 | 14.5 | 0.00 | 0.00 | 0.00 | 83 | 1009.6 |
| 20260506033556 | 10 | 30 | 1.6 | 8.0 | 0.00 | 0.00 | 0.00 | 83 | 1009.7 |
| 20260506033055 | 10 | 317 | 1.6 | 11.3 | 0.00 | 0.00 | 0.00 | 83 | 1009.6 |
| 20260506032555 | 10 | 343 | 1.6 | 12.9 | 0.00 | 0.00 | 0.00 | 83 | 1009.7 |
| 20260506032055 | 10 | 288 | 3.2 | 12.9 | 0.00 | 0.00 | 0.00 | 83 | 1009.6 |
| 20260506031554 | 10 | 5 | 1.6 | 8.0 | 0.00 | 0.00 | 0.00 | 83 | 1009.7 |
| 20260506031056 | 10 | 291 | 3.2 | 8.0 | 0.00 | 0.00 | 0.00 | 83 | 1009.7 |
| 20260506030552 | 10 | 287 | 3.2 | 9.7 | 0.00 | 0.00 | 0.00 | 83 | 1009.8 |
| 20260506030056 | 10 | 317 | 4.8 | 9.7 | 0.00 | 0.00 | 0.00 | 83 | 1009.9 |
| 20260506025551 | 10 | 252 | 3.2 | 8.0 | 0.00 | 0.00 | 0.00 | 83 | 1009.9 |
| 20260506025050 | 10 | 303 | 1.6 | 6.4 | 0.00 | 0.00 | 0.00 | 84 | 1009.9 |
| 20260506024556 | 10 | 344 | 1.6 | 6.4 | 0.00 | 0.00 | 0.00 | 84 | 1009.9 |
| 20260506024047 | 10 | 351 | 1.6 | 9.7 | 0.00 | 0.00 | 0.00 | 84 | 1009.9 |
| 20260506023546 | 10 | 341 | 1.6 | 9.7 | 0.00 | 0.00 | 0.00 | 84 | 1009.9 |
| 20260506023045 | 10 | 287 | 1.6 | 9.7 | 0.00 | 0.00 | 0.00 | 84 | 1009.9 |
| 20260506022544 | 10 | 355 | 1.6 | 9.7 | 0.00 | 0.00 | 0.00 | 84 | 1009.9 |
| 20260506022043 | 10 | 299 | 3.2 | 14.5 | 0.00 | 0.00 | 0.00 | 84 | 1009.9 |
| 20260506021557 | 10 | 269 | 3.2 | 14.5 | 0.00 | 0.00 | 0.00 | 84 | 1009.9 |
| 20260506021041 | 10 | 15 | 1.6 | 11.3 | 0.00 | 0.00 | 0.00 | 83 | 1009.9 |
| 20260506020541 | 10 | 355 | 4.8 | 11.3 | 0.00 | 0.00 | 0.00 | 83 | 1009.9 |
| 20260506020040 | 10 | 52 | 3.2 | 9.7 | 0.00 | 0.00 | 0.00 | 83 | 1009.9 |
| 20260506015539 | 10 | 23 | 3.2 | 9.7 | 0.00 | 0.00 | 0.00 | 83 | 1010.0 |
| 20260506015039 | 10 | 283 | 3.2 | 16.1 | 0.00 | 0.00 | 0.00 | 83 | 1010.1 |
| 20260506014539 | 10 | 46 | 4.8 | 16.1 | 0.00 | 0.00 | 0.00 | 83 | 1010.0 |
| 20260506014040 | 10 | 277 | 3.2 | 14.5 | 0.00 | 0.00 | 0.00 | 83 | 1010.0 |
| 20260506013537 | 10 | 255 | 1.6 | 8.0 | 0.00 | 0.00 | 0.00 | 83 | 1010.1 |
| 20260506013040 | 10 | 71 | 3.2 | 8.0 | 0.00 | 0.00 | 0.00 | 83 | 1010.1 |
| 20260506012638 | 10 | 288 | 3.2 | 8.0 | 0.00 | 0.00 | 0.00 | 83 | 1010.1 |
| 20260506012039 | 10 | 312 | 1.6 | 12.9 | 0.00 | 0.00 | 0.00 | 83 | 1010.1 |
| 20260506011538 | 10 | 290 | 1.6 | 12.9 | 0.00 | 0.00 | 0.00 | 83 | 1010.1 |
| 20260506011037 | 9 | 63 | 3.2 | 8.0 | 0.00 | 0.00 | 0.00 | 84 | 1010.1 |
| 20260506010537 | 9 | 310 | 0.0 | 11.3 | 0.00 | 0.00 | 0.00 | 84 | 1010.2 |
| 20260506010035 | 9 | 292 | 1.6 | 6.4 | 0.00 | 0.00 | 0.00 | 83 | 1010.2 |
| 20260506005534 | 9 | 64 | 1.6 | 6.4 | 0.00 | 0.00 | 0.00 | 83 | 1010.3 |
| 20260506005034 | 9 | 325 | 1.6 | 6.4 | 0.00 | 0.00 | 0.00 | 83 | 1010.3 |
| 20260506004535 | 9 | 34 | 1.6 | 6.4 | 0.00 | 0.00 | 0.00 | 83 | 1010.4 |
| 20260506004034 | 9 | 282 | 3.2 | 14.5 | 0.00 | 0.00 | 0.00 | 83 | 1010.5 |
| 20260506003532 | 9 | 292 | 1.6 | 12.9 | 0.00 | 0.00 | 0.00 | 83 | 1010.5 |
| 20260506003032 | 9 | 30 | 1.6 | 8.0 | 0.00 | 0.00 | 0.00 | 83 | 1010.6 |
| 20260506002531 | 9 | 302 | 1.6 | 8.0 | 0.00 | 0.00 | 0.00 | 82 | 1010.5 |
| 20260506002030 | 10 | 295 | 3.2 | 9.7 | 0.00 | 0.00 | 0.00 | 82 | 1010.6 |
| 20260506001533 | 10 | 331 | 3.2 | 9.7 | 0.00 | 0.00 | 0.00 | 83 | 1010.6 |
| 20260506001030 | 10 | 300 | 1.6 | 8.0 | 0.00 | 0.00 | 0.00 | 83 | 1010.7 |
| 20260506000530 | 10 | 309 | 3.2 | 8.0 | 0.00 | 0.00 | 0.00 | 83 | 1010.7 |
| 20260506000038 | 10 | 310 | 3.2 | 8.0 | 0.00 | 0.00 | 0.00 | 83 | 1010.7 |
| 20260505235533 | 10 | 327 | 3.2 | 11.3 | 0.00 | 0.00 | 0.00 | 83 | 1010.7 |
| 20260505235030 | 10 | 82 | 4.8 | 11.3 | 0.00 | 0.00 | 0.00 | 83 | 1010.7 |
| 20260505234528 | 10 | 307 | 1.6 | 8.0 | 0.00 | 0.00 | 0.00 | 83 | 1010.7 |
| 20260505234029 | 10 | 297 | 1.6 | 8.0 | 0.00 | 0.00 | 0.00 | 82 | 1010.8 |
| 20260505233526 | 10 | 55 | 3.2 | 9.7 | 0.00 | 0.00 | 0.00 | 82 | 1010.9 |
| 20260505233027 | 9 | 333 | 3.2 | 9.7 | 0.00 | 0.00 | 0.00 | 82 | 1010.9 |
| 20260505232525 | 9 | 299 | 0.0 | 11.3 | 0.00 | 0.00 | 0.00 | 82 | 1011.0 |
| 20260505232033 | 9 | 306 | 1.6 | 11.3 | 0.00 | 0.00 | 0.00 | 82 | 1011.0 |
| 20260505231525 | 9 | 80 | 3.2 | 8.0 | 0.00 | 0.00 | 0.00 | 81 | 1011.1 |
| 20260505231024 | 9 | 297 | 0.0 | 9.7 | 0.00 | 0.00 | 0.00 | 81 | 1011.1 |
| 20260505230523 | 9 | 299 | 3.2 | 8.0 | 0.00 | 0.00 | 0.00 | 81 | 1011.1 |
| 20260505230025 | 9 | 317 | 3.2 | 6.4 | 0.00 | 0.00 | 0.00 | 81 | 1011.1 |
| 20260505225524 | 9 | 284 | 1.6 | 6.4 | 0.00 | 0.00 | 0.00 | 81 | 1011.1 |
| 20260505225023 | 9 | 331 | 1.6 | 12.9 | 0.00 | 0.00 | 0.00 | 80 | 1011.1 |